Location: Eyeline Observatory
(43.2182°N, 78.8632°W)
Time: 23:55:20
(UTC-04:00)

Vanguard 2 - Pass Details

Date: 28 January 2018
Orbit: 552 x 2940 km, 32.9° (Epoch: 21 May)

Event Time Altitude Azimuth Distance (km) Brightness Sun altitude
Rises 08:04:20 0° 266° (W) 4,947 11.1 3.9°
Reaches altitude 10° 08:08:39 10° 249° (WSW) 4,364 11.0 4.6°
Maximum altitude 08:16:21 19° 211° (SSW) 4,269 11.4 5.8°
Drops below altitude 10° 08:25:52 10° 174° (S) 5,505 12.5 7.3°
Sets 08:32:33 0° 159° (SSE) 6,725 13.3 8.3°
